,,PressureMeas_1m,,PRMeasQMR101_1,,RHStat155_1m_1,,SRMeasQMS101R_1m,,TAStat155_1m_1,,GenWind_1,,GenWind_1,
2018-08-19, 07:00:06,VALID,916.764,VALID,0.0,VALID,83.364,VALID,152.459,VALID,20.174,VALID,113.0,VALID,0.884,
2018-08-19, 07:01:06,VALID,916.786,VALID,0.0,VALID,83.162,VALID,156.879,VALID,20.211,VALID,115.0,VALID,0.804,
2018-08-19, 07:02:06,VALID,916.802,VALID,0.0,VALID,83.095,VALID,160.871,VALID,20.251,VALID,111.0,VALID,1.121,
2018-08-19, 07:03:06,VALID,916.83,VALID,0.0,VALID,82.558,VALID,164.796,VALID,20.305,VALID,113.0,VALID,1.414,
2018-08-19, 07:04:06,VALID,916.832,VALID,0.0,VALID,82.449,VALID,167.912,VALID,20.323,VALID,112.0,VALID,1.43,
2018-08-19, 07:05:06,VALID,916.84,VALID,0.0,VALID,83.173,VALID,170.134,VALID,20.326,VALID,116.0,VALID,1.268,
2018-08-19, 07:06:06,VALID,916.833,VALID,0.0,VALID,84.611,VALID,171.249,VALID,20.333,VALID,110.0,VALID,0.983,
2018-08-19, 07:07:06,VALID,916.846,VALID,0.0,VALID,83.566,VALID,167.673,VALID,20.384,VALID,99.0,VALID,1.167,
2018-08-19, 07:08:06,VALID,916.836,VALID,0.0,VALID,83.332,VALID,157.683,VALID,20.456,VALID,91.0,VALID,1.321,
2018-08-19, 07:09:06,VALID,916.852,VALID,0.0,VALID,83.541,VALID,147.168,VALID,20.497,VALID,91.0,VALID,1.099,
2018-08-19, 07:10:06,VALID,916.867,VALID,0.0,VALID,83.823,VALID,141.914,VALID,20.523,VALID,93.0,VALID,0.9,
2018-08-19, 07:11:06,VALID,916.854,VALID,0.0,VALID,83.194,VALID,146.006,VALID,20.575,VALID,105.0,VALID,0.973,
2018-08-19, 07:12:06,VALID,916.871,VALID,0.0,VALID,82.75,VALID,143.723,VALID,20.648,VALID,101.0,VALID,0.633,
2018-08-19, 07:13:06,VALID,916.89,VALID,0.0,VALID,83.261,VALID,153.935,VALID,20.738,VALID,96.0,VALID,0.938,
2018-08-19, 07:14:06,VALID,916.892,VALID,0.0,VALID,82.189,VALID,167.126,VALID,20.763,VALID,121.0,VALID,0.813,
2018-08-19, 07:15:06,VALID,916.899,VALID,0.0,VALID,81.561,VALID,142.654,VALID,20.651,VALID,116.0,VALID,0.863,
2018-08-19, 07:16:06,VALID,916.908,VALID,0.0,VALID,81.813,VALID,120.253,VALID,20.611,VALID,111.0,VALID,0.934,
2018-08-19, 07:17:06,VALID,916.899,VALID,0.0,VALID,82.114,VALID,175.692,VALID,20.667,VALID,105.0,VALID,0.857,
2018-08-19, 07:18:06,VALID,916.889,VALID,0.0,VALID,83.424,VALID,177.499,VALID,20.795,VALID,92.0,VALID,0.645,
2018-08-19, 07:19:06,VALID,916.879,VALID,0.0,VALID,81.561,VALID,191.57,VALID,20.879,VALID,102.0,VALID,0.952,
2018-08-19, 07:20:06,VALID,916.866,VALID,0.0,VALID,80.927,VALID,203.7,VALID,20.936,VALID,112.0,VALID,1.346,
2018-08-19, 07:21:06,VALID,916.861,VALID,0.0,VALID,80.055,VALID,203.352,VALID,20.951,VALID,112.0,VALID,1.417,
2018-08-19, 07:22:06,VALID,916.839,VALID,0.0,VALID,81.176,VALID,203.252,VALID,20.95,VALID,99.0,VALID,1.235,
2018-08-19, 07:23:06,VALID,916.838,VALID,0.0,VALID,81.764,VALID,207.791,VALID,21.048,VALID,101.0,VALID,0.795,
2018-08-19, 07:24:06,VALID,916.818,VALID,0.0,VALID,81.593,VALID,206.503,VALID,21.191,VALID,104.0,VALID,1.116,
2018-08-19, 07:25:06,VALID,916.82,VALID,0.0,VALID,79.476,VALID,213.084,VALID,21.3,VALID,99.0,VALID,1.402,
2018-08-19, 07:26:06,VALID,916.806,VALID,0.0,VALID,79.56,VALID,220.57,VALID,21.385,VALID,105.0,VALID,1.302,
2018-08-19, 07:27:06,VALID,916.827,VALID,0.0,VALID,78.01,VALID,226.042,VALID,21.433,VALID,106.0,VALID,1.507,
2018-08-19, 07:28:06,VALID,916.826,VALID,0.0,VALID,78.163,VALID,220.306,VALID,21.482,VALID,107.0,VALID,1.158,
2018-08-19, 07:29:06,VALID,916.831,VALID,0.0,VALID,78.54,VALID,224.166,VALID,21.548,VALID,108.0,VALID,1.157,
2018-08-19, 07:30:06,VALID,916.844,VALID,0.0,VALID,78.402,VALID,233.723,VALID,21.573,VALID,103.0,VALID,1.401,
2018-08-19, 07:31:06,VALID,916.849,VALID,0.0,VALID,78.896,VALID,229.941,VALID,21.533,VALID,102.0,VALID,1.051,
2018-08-19, 07:32:06,VALID,916.87,VALID,0.0,VALID,79.752,VALID,227.921,VALID,21.535,VALID,108.0,VALID,1.026,
2018-08-19, 07:33:06,VALID,916.872,VALID,0.0,VALID,79.097,VALID,239.503,VALID,21.504,VALID,117.0,VALID,1.23,
2018-08-19, 07:34:06,VALID,916.888,VALID,0.0,VALID,79.944,VALID,236.318,VALID,21.371,VALID,118.0,VALID,1.293,
2018-08-19, 07:35:06,VALID,916.906,VALID,0.0,VALID,80.487,VALID,227.335,VALID,21.31,VALID,119.0,VALID,1.368,
2018-08-19, 07:36:06,VALID,916.928,VALID,0.0,VALID,80.683,VALID,235.565,VALID,21.209,VALID,123.0,VALID,1.266,
2018-08-19, 07:37:06,VALID,916.942,VALID,0.0,VALID,81.109,VALID,239.961,VALID,21.087,VALID,126.0,VALID,1.32,
2018-08-19, 07:38:06,VALID,916.947,VALID,0.0,VALID,81.022,VALID,240.015,VALID,20.99,VALID,124.0,VALID,1.591,
2018-08-19, 07:39:06,VALID,916.964,VALID,0.0,VALID,81.524,VALID,252.803,VALID,20.945,VALID,119.0,VALID,1.664,
2018-08-19, 07:40:06,VALID,916.973,VALID,0.0,VALID,82.543,VALID,258.602,VALID,20.976,VALID,112.0,VALID,1.333,
2018-08-19, 07:41:06,VALID,916.989,VALID,0.0,VALID,82.605,VALID,257.151,VALID,21.077,VALID,118.0,VALID,1.556,
2018-08-19, 07:42:06,VALID,917.001,VALID,0.0,VALID,81.764,VALID,261.364,VALID,21.116,VALID,117.0,VALID,1.612,
2018-08-19, 07:43:06,VALID,917.016,VALID,0.0,VALID,81.276,VALID,256.3,VALID,21.145,VALID,117.0,VALID,1.686,
2018-08-19, 07:44:06,VALID,917.036,VALID,0.0,VALID,81.082,VALID,264.713,VALID,21.16,VALID,122.0,VALID,1.55,
2018-08-19, 07:45:06,VALID,917.08,VALID,0.0,VALID,81.076,VALID,267.007,VALID,21.113,VALID,120.0,VALID,1.53,
2018-08-19, 07:46:06,VALID,917.094,VALID,0.0,VALID,81.668,VALID,284.711,VALID,21.119,VALID,118.0,VALID,1.355,
2018-08-19, 07:47:06,VALID,917.122,VALID,0.0,VALID,80.947,VALID,283.214,VALID,21.13,VALID,120.0,VALID,1.655,
2018-08-19, 07:48:06,VALID,917.161,VALID,0.0,VALID,80.896,VALID,288.779,VALID,21.145,VALID,108.0,VALID,1.199,
2018-08-19, 07:49:06,VALID,917.173,VALID,0.0,VALID,81.641,VALID,291.399,VALID,21.298,VALID,111.0,VALID,1.279,
2018-08-19, 07:50:06,VALID,917.21,VALID,0.0,VALID,80.348,VALID,296.789,VALID,21.48,VALID,109.0,VALID,1.291,
2018-08-19, 07:51:06,VALID,917.208,VALID,0.0,VALID,80.851,VALID,300.189,VALID,21.643,VALID,112.0,VALID,1.199,
2018-08-19, 07:52:06,VALID,917.23,VALID,0.0,VALID,79.777,VALID,300.107,VALID,21.785,VALID,94.0,VALID,1.184,
2018-08-19, 07:53:06,VALID,917.239,VALID,0.0,VALID,79.255,VALID,306.19,VALID,21.999,VALID,90.0,VALID,1.087,
2018-08-19, 07:54:06,VALID,917.252,VALID,0.0,VALID,77.62,VALID,311.053,VALID,22.143,VALID,110.0,VALID,1.177,
2018-08-19, 07:55:06,VALID,917.247,VALID,0.0,VALID,76.874,VALID,323.451,VALID,22.238,VALID,109.0,VALID,1.149,
2018-08-19, 07:56:06,VALID,917.26,VALID,0.0,VALID,77.619,VALID,327.103,VALID,22.383,VALID,96.0,VALID,1.167,
2018-08-19, 07:57:06,VALID,917.278,VALID,0.0,VALID,75.876,VALID,333.268,VALID,22.558,VALID,115.0,VALID,1.087,
2018-08-19, 07:58:06,VALID,917.286,VALID,0.0,VALID,75.872,VALID,336.316,VALID,22.599,VALID,115.0,VALID,1.238,
2018-08-19, 07:59:06,VALID,917.287,VALID,0.0,VALID,77.337,VALID,339.633,VALID,22.653,VALID,109.0,VALID,0.988,
2018-08-19, 08:00:06,VALID,917.297,VALID,0.0,VALID,74.49,VALID,342.097,VALID,22.712,VALID,118.0,VALID,1.677,
2018-08-19, 08:01:06,VALID,917.3,VALID,0.0,VALID,74.344,VALID,345.296,VALID,22.474,VALID,126.0,VALID,1.311,
2018-08-19, 08:02:06,VALID,917.281,VALID,0.0,VALID,75.251,VALID,348.575,VALID,22.417,VALID,114.0,VALID,1.354,
2018-08-19, 08:03:06,VALID,917.294,VALID,0.0,VALID,74.816,VALID,352.846,VALID,22.464,VALID,117.0,VALID,1.683,
2018-08-19, 08:04:06,VALID,917.286,VALID,0.0,VALID,74.389,VALID,355.927,VALID,22.447,VALID,115.0,VALID,1.636,
2018-08-19, 08:05:06,VALID,917.285,VALID,0.0,VALID,74.978,VALID,358.37,VALID,22.444,VALID,116.0,VALID,1.489,
2018-08-19, 08:06:06,VALID,917.305,VALID,0.0,VALID,76.574,VALID,362.904,VALID,22.419,VALID,113.0,VALID,1.412,
2018-08-19, 08:07:06,VALID,917.317,VALID,0.0,VALID,74.498,VALID,368.467,VALID,22.436,VALID,110.0,VALID,1.598,
2018-08-19, 08:08:06,VALID,917.334,VALID,0.0,VALID,74.81,VALID,371.836,VALID,22.591,VALID,107.0,VALID,1.247,
2018-08-19, 08:09:06,VALID,917.345,VALID,0.0,VALID,74.462,VALID,375.727,VALID,22.77,VALID,105.0,VALID,1.206,
2018-08-19, 08:10:06,VALID,917.341,VALID,0.0,VALID,75.288,VALID,371.726,VALID,22.961,VALID,105.0,VALID,0.932,
2018-08-19, 08:11:06,VALID,917.335,VALID,0.0,VALID,72.686,VALID,382.535,VALID,23.149,VALID,111.0,VALID,1.088,
2018-08-19, 08:12:06,VALID,917.319,VALID,0.0,VALID,74.195,VALID,384.339,VALID,23.273,VALID,118.0,VALID,0.921,
2018-08-19, 08:13:06,VALID,917.311,VALID,0.0,VALID,72.881,VALID,386.295,VALID,23.361,VALID,116.0,VALID,0.905,
2018-08-19, 08:14:06,VALID,917.285,VALID,0.0,VALID,73.45,VALID,388.951,VALID,23.492,VALID,94.0,VALID,0.784,
2018-08-19, 08:15:06,VALID,917.289,VALID,0.0,VALID,71.296,VALID,384.341,VALID,23.663,VALID,118.0,VALID,1.254,
2018-08-19, 08:16:06,VALID,917.284,VALID,0.0,VALID,69.179,VALID,387.74,VALID,23.47,VALID,117.0,VALID,1.416,
2018-08-19, 08:17:06,VALID,917.295,VALID,0.0,VALID,71.528,VALID,393.677,VALID,23.236,VALID,90.0,VALID,0.82,
2018-08-19, 08:18:06,VALID,917.336,VALID,0.0,VALID,72.383,VALID,397.425,VALID,23.335,VALID,129.0,VALID,0.716,
2018-08-19, 08:19:06,VALID,917.35,VALID,0.0,VALID,71.389,VALID,410.6,VALID,23.445,VALID,114.0,VALID,0.898,
2018-08-19, 08:20:06,VALID,917.383,VALID,0.0,VALID,71.126,VALID,415.228,VALID,23.459,VALID,122.0,VALID,1.009,
2018-08-19, 08:21:06,VALID,917.411,VALID,0.0,VALID,72.037,VALID,418.268,VALID,23.405,VALID,121.0,VALID,0.767,
2018-08-19, 08:22:06,VALID,917.45,VALID,0.0,VALID,71.538,VALID,421.73,VALID,23.418,VALID,117.0,VALID,0.886,
2018-08-19, 08:23:06,VALID,917.461,VALID,0.0,VALID,70.746,VALID,425.584,VALID,23.396,VALID,112.0,VALID,0.691,
2018-08-19, 08:24:06,VALID,917.49,VALID,0.0,VALID,71.515,VALID,429.01,VALID,23.527,VALID,102.0,VALID,0.582,
2018-08-19, 08:25:06,VALID,917.502,VALID,0.0,VALID,69.277,VALID,433.209,VALID,23.844,VALID,118.0,VALID,0.702,
2018-08-19, 08:26:06,VALID,917.516,VALID,0.0,VALID,68.106,VALID,437.466,VALID,23.859,VALID,121.0,VALID,1.014,
2018-08-19, 08:27:06,VALID,917.516,VALID,0.0,VALID,64.688,VALID,440.517,VALID,23.769,VALID,120.0,VALID,1.039,
2018-08-19, 08:28:06,VALID,917.514,VALID,0.0,VALID,66.609,VALID,444.2,VALID,23.72,VALID,122.0,VALID,1.037,
2018-08-19, 08:29:06,VALID,917.52,VALID,0.0,VALID,66.839,VALID,448.234,VALID,23.737,VALID,125.0,VALID,1.264,
2018-08-19, 08:30:06,VALID,917.52,VALID,0.0,VALID,66.297,VALID,451.887,VALID,23.807,VALID,126.0,VALID,1.382,
2018-08-19, 08:31:06,VALID,917.514,VALID,0.0,VALID,65.469,VALID,455.303,VALID,23.87,VALID,129.0,VALID,1.387,
2018-08-19, 08:32:06,VALID,917.519,VALID,0.0,VALID,64.335,VALID,458.85,VALID,23.986,VALID,131.0,VALID,1.284,
2018-08-19, 08:33:06,VALID,917.52,VALID,0.0,VALID,65.545,VALID,462.126,VALID,23.943,VALID,122.0,VALID,1.241,
2018-08-19, 08:34:06,VALID,917.53,VALID,0.0,VALID,67.301,VALID,465.608,VALID,23.899,VALID,121.0,VALID,1.478,
2018-08-19, 08:35:06,VALID,917.554,VALID,0.0,VALID,68.192,VALID,469.24,VALID,23.831,VALID,122.0,VALID,1.187,
2018-08-19, 08:36:06,VALID,917.556,VALID,0.0,VALID,69.203,VALID,472.584,VALID,23.96,VALID,135.0,VALID,0.795,
2018-08-19, 08:37:06,VALID,917.578,VALID,0.0,VALID,68.456,VALID,476.485,VALID,24.186,VALID,122.0,VALID,1.0,
2018-08-19, 08:38:06,VALID,917.576,VALID,0.0,VALID,68.308,VALID,479.789,VALID,24.288,VALID,118.0,VALID,1.102,
2018-08-19, 08:39:06,VALID,917.574,VALID,0.0,VALID,68.134,VALID,483.487,VALID,24.173,VALID,122.0,VALID,1.259,
2018-08-19, 08:40:06,VALID,917.576,VALID,0.0,VALID,69.106,VALID,486.721,VALID,24.09,VALID,118.0,VALID,1.223,
2018-08-19, 08:41:06,VALID,917.57,VALID,0.0,VALID,68.589,VALID,491.794,VALID,24.052,VALID,117.0,VALID,1.005,
2018-08-19, 08:42:06,VALID,917.553,VALID,0.0,VALID,68.936,VALID,493.965,VALID,24.167,VALID,134.0,VALID,0.53,
2018-08-19, 08:43:06,VALID,917.54,VALID,0.0,VALID,68.379,VALID,499.173,VALID,24.481,VALID,142.0,VALID,0.399,
2018-08-19, 08:44:06,VALID,917.546,VALID,0.0,VALID,66.943,VALID,502.171,VALID,24.734,VALID,98.0,VALID,0.795,
2018-08-19, 08:45:06,VALID,917.537,VALID,0.0,VALID,66.082,VALID,505.944,VALID,24.914,VALID,112.0,VALID,0.915,
2018-08-19, 08:46:06,VALID,917.538,VALID,0.0,VALID,66.538,VALID,509.495,VALID,24.858,VALID,105.0,VALID,0.903,
2018-08-19, 08:47:06,VALID,917.539,VALID,0.0,VALID,66.461,VALID,512.572,VALID,25.001,VALID,108.0,VALID,0.896,
2018-08-19, 08:48:06,VALID,917.553,VALID,0.0,VALID,66.545,VALID,516.051,VALID,25.206,VALID,110.0,VALID,0.734,
2018-08-19, 08:49:06,VALID,917.569,VALID,0.0,VALID,65.378,VALID,519.984,VALID,25.003,VALID,129.0,VALID,1.521,
2018-08-19, 08:50:06,VALID,917.58,VALID,0.0,VALID,64.272,VALID,523.877,VALID,24.669,VALID,126.0,VALID,1.43,
2018-08-19, 08:51:06,VALID,917.588,VALID,0.0,VALID,66.958,VALID,527.044,VALID,24.481,VALID,112.0,VALID,0.868,
2018-08-19, 08:52:06,VALID,917.591,VALID,0.0,VALID,65.33,VALID,529.947,VALID,24.687,VALID,105.0,VALID,1.086,
2018-08-19, 08:53:06,VALID,917.601,VALID,0.0,VALID,64.521,VALID,533.742,VALID,24.885,VALID,112.0,VALID,0.917,
2018-08-19, 08:54:06,VALID,917.58,VALID,0.0,VALID,64.067,VALID,537.237,VALID,25.057,VALID,121.0,VALID,0.497,
2018-08-19, 08:55:06,VALID,917.587,VALID,0.0,VALID,66.017,VALID,540.495,VALID,25.178,VALID,135.0,VALID,0.664,
2018-08-19, 08:56:06,VALID,917.58,VALID,0.0,VALID,63.236,VALID,544.205,VALID,25.283,VALID,165.0,VALID,0.412,
2018-08-19, 08:57:06,VALID,917.588,VALID,0.0,VALID,62.121,VALID,547.456,VALID,25.229,VALID,143.0,VALID,0.684,
2018-08-19, 08:58:06,VALID,917.592,VALID,0.0,VALID,61.979,VALID,551.185,VALID,25.196,VALID,136.0,VALID,0.753,
2018-08-19, 08:59:06,VALID,917.616,VALID,0.0,VALID,62.813,VALID,554.102,VALID,25.171,VALID,120.0,VALID,0.677,
2018-08-19, 09:00:06,VALID,917.611,VALID,0.0,VALID,63.982,VALID,557.623,VALID,25.357,VALID,138.0,VALID,0.368,
2018-08-19, 09:01:06,VALID,917.637,VALID,0.0,VALID,62.404,VALID,560.87,VALID,25.633,VALID,153.0,VALID,0.217,
2018-08-19, 09:02:06,VALID,917.666,VALID,0.0,VALID,65.674,VALID,564.496,VALID,25.749,VALID,105.0,VALID,1.088,
2018-08-19, 09:03:06,VALID,917.693,VALID,0.0,VALID,65.102,VALID,568.193,VALID,25.878,VALID,94.0,VALID,0.78,
2018-08-19, 09:04:06,VALID,917.691,VALID,0.0,VALID,65.049,VALID,571.987,VALID,25.917,VALID,59.0,VALID,1.671,
2018-08-19, 09:05:06,VALID,917.696,VALID,0.0,VALID,65.725,VALID,575.358,VALID,25.674,VALID,44.0,VALID,1.447,
2018-08-19, 09:06:06,VALID,917.697,VALID,0.0,VALID,63.662,VALID,578.872,VALID,25.601,VALID,50.0,VALID,1.309,
2018-08-19, 09:07:06,VALID,917.683,VALID,0.0,VALID,64.669,VALID,582.664,VALID,25.418,VALID,61.0,VALID,1.53,
2018-08-19, 09:08:06,VALID,917.673,VALID,0.0,VALID,64.56,VALID,585.619,VALID,25.17,VALID,71.0,VALID,1.145,
2018-08-19, 09:09:06,VALID,917.648,VALID,0.0,VALID,64.428,VALID,588.855,VALID,25.128,VALID,83.0,VALID,1.13,
2018-08-19, 09:10:06,VALID,917.648,VALID,0.0,VALID,63.811,VALID,592.334,VALID,25.225,VALID,82.0,VALID,1.323,
2018-08-19, 09:11:06,VALID,917.628,VALID,0.0,VALID,64.094,VALID,595.056,VALID,25.251,VALID,51.0,VALID,0.63,
2018-08-19, 09:12:06,VALID,917.614,VALID,0.0,VALID,62.166,VALID,599.454,VALID,25.383,VALID,72.0,VALID,0.484,
2018-08-19, 09:13:06,VALID,917.618,VALID,0.0,VALID,61.847,VALID,602.222,VALID,25.51,VALID,125.0,VALID,1.152,
2018-08-19, 09:14:06,VALID,917.612,VALID,0.0,VALID,61.618,VALID,605.076,VALID,25.46,VALID,106.0,VALID,1.109,
2018-08-19, 09:15:06,VALID,917.623,VALID,0.0,VALID,63.769,VALID,607.984,VALID,25.502,VALID,179.0,VALID,0.574,
2018-08-19, 09:16:06,VALID,917.603,VALID,0.0,VALID,62.985,VALID,611.56,VALID,25.551,VALID,170.0,VALID,0.233,
2018-08-19, 09:17:06,VALID,917.612,VALID,0.0,VALID,61.071,VALID,614.789,VALID,25.651,VALID,156.0,VALID,0.503,
2018-08-19, 09:18:06,VALID,917.606,VALID,0.0,VALID,60.023,VALID,617.719,VALID,25.645,VALID,124.0,VALID,1.206,
2018-08-19, 09:19:06,VALID,917.615,VALID,0.0,VALID,59.711,VALID,621.086,VALID,25.548,VALID,123.0,VALID,1.172,
2018-08-19, 09:20:06,VALID,917.606,VALID,0.0,VALID,61.338,VALID,624.568,VALID,25.305,VALID,120.0,VALID,0.913,
2018-08-19, 09:21:06,VALID,917.592,VALID,0.0,VALID,61.523,VALID,627.679,VALID,25.287,VALID,106.0,VALID,0.948,
2018-08-19, 09:22:06,VALID,917.588,VALID,0.0,VALID,61.52,VALID,630.595,VALID,25.514,VALID,107.0,VALID,1.209,
2018-08-19, 09:23:06,VALID,917.603,VALID,0.0,VALID,59.263,VALID,634.166,VALID,25.699,VALID,119.0,VALID,0.96,
2018-08-19, 09:24:06,VALID,917.594,VALID,0.0,VALID,59.338,VALID,637.586,VALID,25.781,VALID,101.0,VALID,0.762,
2018-08-19, 09:25:06,VALID,917.602,VALID,0.0,VALID,57.609,VALID,640.397,VALID,25.687,VALID,128.0,VALID,1.175,
2018-08-19, 09:26:06,VALID,917.61,VALID,0.0,VALID,57.912,VALID,639.957,VALID,25.489,VALID,114.0,VALID,0.826,
2018-08-19, 09:27:06,VALID,917.636,VALID,0.0,VALID,59.638,VALID,646.969,VALID,25.633,VALID,125.0,VALID,1.149,
2018-08-19, 09:28:06,VALID,917.65,VALID,0.0,VALID,56.11,VALID,649.477,VALID,25.832,VALID,116.0,VALID,0.397,
2018-08-19, 09:29:06,VALID,917.644,VALID,0.0,VALID,53.457,VALID,652.115,VALID,26.134,VALID,56.0,VALID,0.212,
2018-08-19, 09:30:06,VALID,917.632,VALID,0.0,VALID,54.841,VALID,655.799,VALID,26.321,VALID,33.0,VALID,0.138,
2018-08-19, 09:31:06,VALID,917.63,VALID,0.0,VALID,55.374,VALID,657.979,VALID,26.587,VALID,282.0,VALID,0.394,
2018-08-19, 09:32:06,VALID,917.634,VALID,0.0,VALID,51.622,VALID,660.053,VALID,26.526,VALID,184.0,VALID,0.543,
2018-08-19, 09:33:06,VALID,917.624,VALID,0.0,VALID,51.622,VALID,663.512,VALID,26.336,VALID,87.0,VALID,0.408,
2018-08-19, 09:34:06,VALID,917.629,VALID,0.0,VALID,50.722,VALID,665.835,VALID,26.301,VALID,82.0,VALID,0.436,
2018-08-19, 09:35:06,VALID,917.645,VALID,0.0,VALID,50.283,VALID,668.751,VALID,26.194,VALID,79.0,VALID,0.391,
2018-08-19, 09:36:06,VALID,917.644,VALID,0.0,VALID,52.452,VALID,672.832,VALID,26.236,VALID,73.0,VALID,0.483,
2018-08-19, 09:37:06,VALID,917.648,VALID,0.0,VALID,54.217,VALID,675.089,VALID,26.283,VALID,81.0,VALID,0.159,
2018-08-19, 09:38:06,VALID,917.659,VALID,0.0,VALID,56.293,VALID,678.641,VALID,26.477,VALID,25.0,VALID,0.347,
2018-08-19, 09:39:06,VALID,917.695,VALID,0.0,VALID,55.824,VALID,680.91,VALID,26.939,VALID,2.0,VALID,0.227,
2018-08-19, 09:40:06,VALID,917.713,VALID,0.0,VALID,52.234,VALID,684.306,VALID,27.072,VALID,335.0,VALID,0.479,
2018-08-19, 09:41:06,VALID,917.723,VALID,0.0,VALID,51.365,VALID,687.972,VALID,26.77,VALID,325.0,VALID,0.73,
2018-08-19, 09:42:06,VALID,917.734,VALID,0.0,VALID,51.118,VALID,691.887,VALID,26.471,VALID,337.0,VALID,0.365,
2018-08-19, 09:43:06,VALID,917.75,VALID,0.0,VALID,50.368,VALID,694.546,VALID,26.433,VALID,347.0,VALID,0.35,
2018-08-19, 09:44:06,VALID,917.763,VALID,0.0,VALID,49.021,VALID,697.185,VALID,26.426,VALID,329.0,VALID,0.145,
2018-08-19, 09:45:06,VALID,917.766,VALID,0.0,VALID,50.182,VALID,699.237,VALID,26.416,VALID,327.0,VALID,0.534,
2018-08-19, 09:46:06,VALID,917.777,VALID,0.0,VALID,50.02,VALID,701.564,VALID,26.424,VALID,327.0,VALID,0.408,
2018-08-19, 09:47:06,VALID,917.773,VALID,0.0,VALID,50.107,VALID,704.638,VALID,26.525,VALID,68.0,VALID,0.63,
2018-08-19, 09:48:06,VALID,917.778,VALID,0.0,VALID,50.373,VALID,706.921,VALID,26.57,INVALID,360.0,VALID,0.064,
2018-08-19, 09:49:06,VALID,917.759,VALID,0.0,VALID,51.997,VALID,710.535,VALID,26.827,VALID,46.0,VALID,0.672,
2018-08-19, 09:50:06,VALID,917.747,VALID,0.0,VALID,52.489,VALID,714.634,VALID,27.122,VALID,35.0,VALID,0.674,
2018-08-19, 09:51:06,VALID,917.735,VALID,0.0,VALID,50.876,VALID,718.169,VALID,27.265,VALID,9.0,VALID,0.764,
2018-08-19, 09:52:06,VALID,917.72,VALID,0.0,VALID,52.565,VALID,720.978,VALID,27.1,VALID,17.0,VALID,1.069,
2018-08-19, 09:53:06,VALID,917.716,VALID,0.0,VALID,51.562,VALID,724.168,VALID,27.087,VALID,22.0,VALID,1.134,
2018-08-19, 09:54:06,VALID,917.708,VALID,0.0,VALID,52.255,VALID,726.294,VALID,26.876,VALID,22.0,VALID,1.212,
2018-08-19, 09:55:06,VALID,917.708,VALID,0.0,VALID,52.407,VALID,728.969,VALID,26.834,VALID,14.0,VALID,1.307,
2018-08-19, 09:56:06,VALID,917.719,VALID,0.0,VALID,52.56,VALID,730.922,VALID,26.793,VALID,6.0,VALID,0.998,
2018-08-19, 09:57:06,VALID,917.715,VALID,0.0,VALID,52.79,VALID,732.813,VALID,26.762,VALID,12.0,VALID,0.856,
2018-08-19, 09:58:06,VALID,917.726,VALID,0.0,VALID,52.081,VALID,735.255,VALID,26.854,VALID,18.0,VALID,0.417,
2018-08-19, 09:59:06,VALID,917.722,VALID,0.0,VALID,50.649,VALID,738.513,VALID,26.909,VALID,341.0,VALID,0.494,
2018-08-19, 10:00:06,VALID,917.723,VALID,0.0,VALID,52.047,VALID,741.18,VALID,26.867,VALID,357.0,VALID,0.615,
2018-08-19, 10:01:06,VALID,917.746,VALID,0.0,VALID,51.636,VALID,743.656,VALID,27.07,VALID,346.0,VALID,0.387,
2018-08-19, 10:02:06,VALID,917.735,VALID,0.0,VALID,51.018,VALID,747.684,VALID,27.079,VALID,29.0,VALID,0.271,
2018-08-19, 10:03:06,VALID,917.762,VALID,0.0,VALID,50.285,VALID,749.585,VALID,27.239,VALID,28.0,VALID,1.055,
2018-08-19, 10:04:06,VALID,917.768,VALID,0.0,VALID,52.444,VALID,751.505,VALID,27.0,VALID,18.0,VALID,1.105,
2018-08-19, 10:05:06,VALID,917.785,VALID,0.0,VALID,54.626,VALID,754.63,VALID,27.029,VALID,20.0,VALID,0.702,
2018-08-19, 10:06:06,VALID,917.785,VALID,0.0,VALID,52.693,VALID,757.019,VALID,27.326,VALID,349.0,VALID,0.47,
2018-08-19, 10:07:06,VALID,917.784,VALID,0.0,VALID,52.104,VALID,760.164,VALID,27.335,VALID,13.0,VALID,0.921,
2018-08-19, 10:08:06,VALID,917.774,VALID,0.0,VALID,53.128,VALID,762.396,VALID,27.4,VALID,25.0,VALID,0.964,
2018-08-19, 10:09:06,VALID,917.792,VALID,0.0,VALID,53.297,VALID,764.955,VALID,27.556,VALID,32.0,VALID,0.479,
2018-08-19, 10:10:06,VALID,917.803,VALID,0.0,VALID,51.638,VALID,767.865,VALID,27.753,VALID,352.0,VALID,0.703,
2018-08-19, 10:11:06,VALID,917.796,VALID,0.0,VALID,49.375,VALID,769.808,VALID,27.458,INVALID,360.0,VALID,0.279,
2018-08-19, 10:12:06,VALID,917.804,VALID,0.0,VALID,51.629,VALID,772.089,VALID,27.466,VALID,8.0,VALID,0.517,
2018-08-19, 10:13:06,VALID,917.823,VALID,0.0,VALID,50.558,VALID,773.857,VALID,27.527,VALID,18.0,VALID,0.693,
2018-08-19, 10:14:06,VALID,917.817,VALID,0.0,VALID,50.101,VALID,776.407,VALID,27.461,VALID,351.0,VALID,0.917,
2018-08-19, 10:15:06,VALID,917.791,VALID,0.0,VALID,50.293,VALID,779.575,VALID,27.144,VALID,331.0,VALID,0.734,
2018-08-19, 10:16:06,VALID,917.787,VALID,0.0,VALID,51.677,VALID,782.82,VALID,26.852,INVALID,360.0,VALID,0.186,
2018-08-19, 10:17:06,VALID,917.756,VALID,0.0,VALID,51.242,VALID,786.238,VALID,26.817,VALID,327.0,VALID,0.354,
2018-08-19, 10:18:06,VALID,917.76,VALID,0.0,VALID,53.561,VALID,786.708,VALID,26.893,VALID,348.0,VALID,0.291,
2018-08-19, 10:19:06,VALID,917.744,VALID,0.0,VALID,52.778,VALID,791.093,VALID,27.196,VALID,334.0,VALID,0.779,
2018-08-19, 10:20:06,VALID,917.724,VALID,0.0,VALID,51.447,VALID,793.387,VALID,26.957,VALID,325.0,VALID,0.845,
2018-08-19, 10:21:06,VALID,917.728,VALID,0.0,VALID,53.005,VALID,796.86,VALID,26.724,VALID,325.0,VALID,0.784,
2018-08-19, 10:22:06,VALID,917.735,VALID,0.0,VALID,52.998,VALID,801.688,VALID,26.635,VALID,334.0,VALID,0.751,
2018-08-19, 10:23:06,VALID,917.713,VALID,0.0,VALID,53.743,VALID,804.554,VALID,26.704,VALID,21.0,VALID,0.534,
2018-08-19, 10:24:06,VALID,917.714,VALID,0.0,VALID,52.798,VALID,809.459,VALID,26.954,VALID,352.0,VALID,1.015,
2018-08-19, 10:25:06,VALID,917.727,VALID,0.0,VALID,51.991,VALID,813.587,VALID,26.724,VALID,330.0,VALID,1.1,
2018-08-19, 10:26:06,VALID,917.721,VALID,0.0,VALID,53.571,VALID,810.046,VALID,26.549,VALID,326.0,VALID,0.543,
2018-08-19, 10:27:06,VALID,917.727,VALID,0.0,VALID,53.251,VALID,823.065,VALID,26.623,VALID,349.0,VALID,0.602,
2018-08-19, 10:28:06,VALID,917.744,VALID,0.0,VALID,56.971,VALID,830.185,VALID,26.824,VALID,9.0,VALID,0.559,
2018-08-19, 10:29:06,VALID,917.758,VALID,0.0,VALID,51.929,VALID,837.522,VALID,27.032,VALID,6.0,VALID,0.685,
2018-08-19, 10:30:06,VALID,917.769,VALID,0.0,VALID,53.995,VALID,846.67,VALID,27.138,VALID,37.0,VALID,0.539,
2018-08-19, 10:31:06,VALID,917.779,VALID,0.0,VALID,53.203,VALID,845.451,VALID,27.084,VALID,333.0,VALID,1.729,
2018-08-19, 10:32:06,VALID,917.732,VALID,0.0,VALID,50.586,VALID,836.824,VALID,26.612,VALID,32.0,VALID,0.7,
2018-08-19, 10:33:06,VALID,917.725,VALID,0.0,VALID,53.066,VALID,792.146,VALID,26.54,VALID,357.0,VALID,0.826,
2018-08-19, 10:34:06,VALID,917.694,VALID,0.0,VALID,54.234,VALID,778.129,VALID,26.734,INVALID,360.0,VALID,0.128,
2018-08-19, 10:35:06,VALID,917.65,VALID,0.0,VALID,55.083,VALID,807.693,VALID,27.067,VALID,7.0,VALID,0.934,